TimeMDT,TemperatureF,Dew PointF,Humidity,Sea Level PressureIn,VisibilityMPH,Wind Direction,Wind SpeedMPH,Gust SpeedMPH,PrecipitationIn,Events,Conditions,WindDirDegrees,DateUTC
12:56 AM,63.0,61.0,93,29.69,10.0,Calm,Calm,-,0.00,,Overcast,0,2013-09-09 06:56:00
1:26 AM,64.4,62.6,94,29.74,10.0,East,4.6,-,N/A,,Overcast,80,2013-09-09 07:26:00
1:34 AM,64.4,62.6,94,29.73,10.0,ENE,3.5,-,N/A,,Overcast,70,2013-09-09 07:34:00
1:56 AM,64.0,63.0,96,29.68,5.0,Calm,Calm,-,N/A,,Overcast,0,2013-09-09 07:56:00
2:06 AM,64.4,62.6,94,29.74,1.8,Calm,Calm,-,N/A,,Overcast,0,2013-09-09 08:06:00
2:56 AM,64.0,63.0,96,29.70,1.0,West,5.8,-,N/A,,Mist,280,2013-09-09 08:56:00
3:19 AM,64.4,62.6,94,29.74,2.5,NNW,5.8,-,0.01,Rain,Light Rain,340,2013-09-09 09:19:00
3:26 AM,64.4,62.6,94,29.75,4.0,NW,5.8,-,0.03,Rain,Rain,310,2013-09-09 09:26:00
3:35 AM,64.4,62.6,94,29.75,2.5,NW,9.2,-,0.06,Rain,Rain,310,2013-09-09 09:35:00
3:48 AM,62.6,62.6,100,29.75,2.5,NW,11.5,-,0.14,Rain,Rain,310,2013-09-09 09:48:00
3:52 AM,62.6,62.6,100,29.75,4.0,WNW,15.0,-,0.14,Rain,Light Rain,300,2013-09-09 09:52:00
3:56 AM,63.0,61.0,93,29.70,8.0,NW,12.7,-,0.14,Rain,Light Rain,310,2013-09-09 09:56:00
4:21 AM,62.6,60.8,94,29.76,10.0,North,12.7,19.6,0.02,Rain,Light Rain,350,2013-09-09 10:21:00
4:56 AM,62.1,60.1,93,29.72,10.0,North,12.7,-,0.03,Rain,Light Rain,350,2013-09-09 10:56:00
5:56 AM,62.1,59.0,90,29.71,10.0,North,6.9,-,0.00,,Overcast,350,2013-09-09 11:56:00
6:48 AM,60.8,59.0,94,29.79,10.0,WNW,11.5,-,N/A,,Mostly Cloudy,290,2013-09-09 12:48:00
6:56 AM,62.1,59.0,90,29.76,10.0,WNW,10.4,-,N/A,,Overcast,290,2013-09-09 12:56:00
7:09 AM,62.6,60.8,94,29.79,10.0,West,11.5,-,N/A,,Overcast,280,2013-09-09 13:09:00
7:56 AM,63.0,60.1,90,29.76,7.0,WNW,11.5,-,N/A,,Overcast,290,2013-09-09 13:56:00
8:19 AM,64.4,60.8,88,29.79,9.0,WNW,12.7,-,N/A,,Scattered Clouds,300,2013-09-09 14:19:00
8:56 AM,66.0,61.0,84,29.75,10.0,WNW,15.0,-,N/A,,Clear,290,2013-09-09 14:56:00
9:38 AM,64.4,60.8,88,29.80,10.0,WNW,15.0,23.0,N/A,,Mostly Cloudy,290,2013-09-09 15:38:00
9:46 AM,66.2,60.8,83,29.80,10.0,WNW,16.1,-,N/A,,Scattered Clouds,290,2013-09-09 15:46:00
9:56 AM,66.9,60.1,79,29.77,10.0,West,15.0,-,N/A,,Partly Cloudy,280,2013-09-09 15:56:00
10:56 AM,71.1,57.9,63,29.77,10.0,West,15.0,-,N/A,,Clear,280,2013-09-09 16:56:00
11:56 AM,73.9,57.0,55,29.78,10.0,West,15.0,23.0,N/A,,Clear,270,2013-09-09 17:56:00
12:56 PM,75.0,54.0,48,29.78,10.0,West,19.6,25.3,N/A,,Mostly Cloudy,280,2013-09-09 18:56:00
1:56 PM,75.9,54.0,46,29.77,10.0,West,18.4,25.3,N/A,,Scattered Clouds,270,2013-09-09 19:56:00
2:56 PM,79.0,51.1,38,29.76,10.0,West,19.6,25.3,N/A,,Scattered Clouds,280,2013-09-09 20:56:00
3:56 PM,77.0,48.9,37,29.76,10.0,West,17.3,-,N/A,,Scattered Clouds,260,2013-09-09 21:56:00
4:56 PM,75.0,46.9,37,29.77,10.0,West,16.1,27.6,N/A,,Mostly Cloudy,260,2013-09-09 22:56:00
5:56 PM,72.0,50.0,46,29.79,10.0,West,8.1,-,N/A,,Mostly Cloudy,270,2013-09-09 23:56:00
6:56 PM,70.0,50.0,49,29.80,10.0,West,10.4,-,N/A,,Overcast,260,2013-09-10 00:56:00
7:56 PM,66.0,50.0,56,29.83,10.0,West,10.4,-,N/A,,Mostly Cloudy,270,2013-09-10 01:56:00
8:56 PM,60.1,51.1,72,29.86,10.0,WNW,4.6,-,N/A,,Clear,290,2013-09-10 02:56:00
9:56 PM,55.9,51.1,84,29.87,10.0,West,5.8,-,N/A,,Clear,260,2013-09-10 03:56:00
10:56 PM,55.0,52.0,89,29.88,10.0,West,5.8,-,N/A,,Clear,270,2013-09-10 04:56:00
11:56 PM,55.9,52.0,87,29.87,10.0,WNW,5.8,-,N/A,,Clear,290,2013-09-10 05:56:00